RH
65 71 73 68 72 57 41 43 40 39 38 36 36 42 41 42 41 42 37 42 34 45 35 40 39 37 34 30 33 30 28 31 36 34 32 28 30 38
75 68 61 57 50 44 42 40 42 42 41 41 44 44 47 48 47 43 35 35 38 38 41 47 37 37 32 34 37 35 31 31 22 21 34 34 31 32
80 70 55 44 41 41 42 42 43 44 42 44 46 50 52 50 48 44 41 47 43 41 51 37 29 38 37 36 36 25 7 6 6 6 6 14 32 39
69 52 42 40 42 43 44 45 46 44 42 43 48 52 54 52 48 45 60 52 48 54 55 7 6 13 12 7 6 5 5 5 6 7 6 7 8 20
49 41 41 41 45 45 46 47 47 45 44 46 49 53 54 53 50 50 54 46 59 58 37 17 13 19 19 20 19 19 18 19 19 19 18 12 9 15
44 43 41 37 36 38 45 49 49 46 46 47 53 56 58 59 57 53 46 59 32 28 21 19 24 27 27 26 26 25 24 22 22 21 19 17 13 22
38 34 32 32 33 35 44 51 49 47 48 51 56 59 56 52 54 60 58 18 16 25 30 30 31 30 30 28 26 24 23 22 21 19 17 16 14 16
39 39 39 39 38 43 51 52 50 52 56 58 62 64 66 69 39 16 21 29 34 34 34 33 31 30 27 26 24 23 22 20 19 18 17 16 14 15
46 47 45 44 47 56 55 53 60 64 56 54 57 44 23 26 36 47 56 49 37 38 40 39 37 34 30 26 24 23 21 19 17 16 15 12 12 10
54 48 45 51 58 58 60 66 68 49 17 22 32 37 39 41 46 50 51 53 50 52 52 51 48 44 36 30 26 24 23 23 23 23 23 22 21 17
54 49 58 58 55 63 70 70 50 20 29 42 52 59 58 57 48 46 58 56 67 81 83 57 53 50 47 40 34 31 31 31 32 32 33 33 33 34
52 55 64 60 68 75 70 42 22 35 42 55 64 68 53 64 75 52 48 78 67 60 82 88 65 58 54 50 48 46 44 43 42 42 42 43 43 43
58 58 70 70 78 79 37 24 39 52 58 66 52 55 74 72 52 50 66 80 70 49 52 73 86 79 68 62 58 56 54 52 50 50 51 51 50 48
60 62 76 81 87 55 21 37 59 66 63 51 43 44 46 43 43 40 43 50 55 50 44 56 73 82 95 94 84 69 62 60 58 55 52 49 48 47
66 79 84 92 90 44 35 35 45 62 59 46 43 43 47 80 65 43 39 39 36 36 45 67 76 84 94 93 98 96 95 90 81 66 58 56 56 56
86 93 92 91 89 36 44 34 44 59 46 40 41 41 41 39 37 35 33 33 51 79 80 86 90 93 97 98 98 95 86 82 83 73 66 65 65 65
92 96 98 98 88 29 35 42 34 33 30 33 34 33 33 32 31 30 34 84 74 61 51 88 94 95 95 95 98 93 87 89 90 90 91 84 74 73
92 97 98 97 90 47 24 37 29 23 24 25 25 26 26 26 26 28 49 53 38 63 71 80 89 96 96 95 95 96 94 91 88 86 85 84 83 80
93 97 97 96 96 53 38 15 17 19 20 21 21 22 22 23 24 27 34 36 46 85 97 95 97 94 91 94 96 96 96 98 96 92 91 94 95 94
95 98 97 97 87 52 21 26 20 19 22 20 20 22 26 24 23 28 53 92 95 98 96 96 98 93 91 92 94 96 95 92 92 93 92 91 93 95
93 96 97 98 93 67 47 62 89 94 80 79 93 93 88 66 54 71 95 95 97 97 93 94 92 91 90 88 88 91 90 90 92 92 92 92 95 96
97 96 96 96 97 96 97 96 96 95 95 95 94 95 96 95 95 97 98 98 98 97 94 96 94 90 89 89 90 90 91 92 90 90 92 94 92 92
98 97 97 97 96 96 96 96 95 97 98 98 97 96 96 96 96 93 93 93 99 97 94 95 94 92 90 89 88 90 91 91 90 95 95 90 88 89
Wind_Speed
37 39 40 31 29 28 30 32 33 35 34 32 32 29 27 26 26 28 27 26 24 21 21 20 19 18 16 14 14 13 14 13 12 11 12 14 17 20
41 31 29 29 29 29 30 32 32 33 35 35 32 31 29 26 24 26 26 25 23 20 19 18 16 15 16 15 14 13 14 12 11 9 13 14 16 19
29 31 30 29 28 28 29 30 31 32 33 34 34 32 30 28 26 24 21 24 20 18 18 16 15 15 15 15 12 12 12 12 10 9 12 14 16 18
30 29 29 28 27 27 28 29 30 31 32 32 31 30 29 28 26 22 22 22 19 17 17 15 14 14 13 13 12 13 12 13 12 12 14 15 15 18
27 27 28 28 27 27 28 29 30 31 32 32 30 28 26 24 24 23 21 20 17 15 15 15 15 16 16 16 16 16 15 14 15 15 16 17 16 18
27 27 27 27 27 28 29 30 30 31 30 29 28 26 22 20 20 19 18 16 14 13 14 14 16 17 18 18 17 16 17 15 14 15 17 17 18 19
26 26 27 28 29 29 30 30 30 30 29 27 24 21 18 15 14 15 13 12 13 14 14 15 16 17 17 17 16 16 16 15 15 15 17 17 18 21
27 28 28 29 30 29 29 29 28 26 24 21 19 18 14 10 9 9 11 12 13 14 15 15 15 15 15 16 16 16 15 15 15 15 17 17 18 20
28 29 29 29 29 28 28 26 23 19 16 14 10 8 8 7 6 5 9 13 14 13 14 14 14 16 14 15 17 16 15 15 15 15 15 17 19 20
28 29 28 27 27 27 25 22 18 15 12 9 6 4 6 7 8 9 12 10 10 12 12 13 14 15 15 15 15 15 15 16 16 16 16 16 18 19
28 28 26 25 24 23 20 18 15 14 12 11 8 10 14 9 10 8 8 9 9 11 12 15 14 14 14 15 15 15 16 17 17 18 18 19 20 20
28 26 24 20 19 19 17 16 15 13 12 10 9 10 8 7 8 9 9 13 12 12 13 12 14 14 14 15 15 16 17 18 18 19 19 21 22 23
29 26 24 22 20 18 16 15 15 14 14 13 13 13 11 10 11 12 15 13 13 13 13 12 14 15 15 15 15 16 16 18 19 19 20 21 22 23
29 26 23 23 19 18 17 18 15 15 15 15 16 16 16 13 13 14 14 16 16 18 16 15 15 21 22 21 20 17 17 18 19 20 20 21 22 24
27 24 23 22 20 20 20 20 19 19 18 17 18 18 17 16 16 18 18 18 17 17 18 22 27 26 22 22 24 24 23 20 20 21 22 23 25 26
25 23 23 22 22 23 22 23 22 21 20 20 20 20 19 19 18 18 17 16 18 23 26 26 24 22 22 21 23 22 21 21 22 24 24 26 28 28
23 21 22 23 24 25 25 25 24 23 22 22 21 21 21 20 20 19 17 19 23 25 26 24 22 22 22 23 24 24 24 23 25 26 26 28 29 29
22 22 23 25 24 25 25 25 24 23 23 23 22 21 22 22 22 22 23 24 26 30 31 29 24 23 22 24 24 26 27 28 28 28 29 28 29 31
19 21 22 25 25 23 24 25 24 25 24 23 23 23 24 25 24 25 27 28 29 32 32 27 25 24 23 24 27 27 29 29 30 31 31 30 28 30
18 19 19 24 22 25 27 25 26 25 24 24 24 23 25 26 27 26 31 38 32 30 28 26 24 25 25 24 25 25 28 30 31 32 32 31 28 28
18 17 19 22 26 29 30 32 36 31 29 32 31 29 29 31 33 34 29 26 25 26 26 27 28 26 27 27 26 27 30 30 31 32 31 31 27 26
21 19 17 20 22 24 26 29 28 28 27 25 26 26 25 24 24 24 25 26 26 28 28 29 29 29 28 28 28 27 27 29 31 31 29 28 26 25
23 23 20 20 20 21 22 22 22 22 22 22 23 24 25 25 26 27 27 28 29 30 30 29 30 29 29 28 27 25 25 27 28 27 26 28 27 27
Wind_Direction
271 280 289 294 290 289 290 295 297 297 295 297 297 294 291 287 286 283 286 278 279 271 271 273 271 266 259 244 239 242 248 243 238 240 234 218 213 212
273 284 289 290 289 288 290 292 294 295 295 295 291 290 287 284 279 279 282 280 277 263 269 274 271 261 247 245 246 244 240 235 231 233 230 223 214 210
280 285 287 288 288 290 292 294 294 293 293 292 291 290 288 284 281 275 268 266 266 262 263 256 259 257 250 252 240 235 238 234 234 234 235 228 223 218
283 284 287 290 291 291 291 292 293 293 292 290 289 287 287 287 282 272 265 265 260 257 251 245 247 251 248 250 247 244 239 243 244 245 245 237 229 223
285 287 288 289 289 291 292 292 292 291 290 289 287 283 280 281 278 272 264 263 260 253 238 243 246 252 254 253 252 250 247 243 245 249 242 241 231 233
285 286 286 288 291 290 291 291 291 289 289 288 286 283 278 278 276 270 263 260 250 242 242 249 257 257 256 256 253 250 247 242 241 241 244 237 229 225
284 285 286 287 288 290 291 292 292 291 289 287 283 277 271 269 265 263 255 249 252 257 260 259 259 257 257 257 255 253 248 244 241 239 242 240 233 229
286 288 289 289 289 290 290 290 290 291 286 280 275 269 262 252 242 247 258 258 262 267 266 263 262 260 256 255 254 250 248 244 240 234 237 238 241 235
288 289 290 291 292 291 289 289 288 284 279 270 252 240 233 235 255 267 282 280 269 269 273 271 271 267 264 259 255 251 246 243 240 237 230 236 239 237
293 294 292 290 289 286 283 282 277 268 253 239 229 237 257 255 258 262 268 279 288 281 282 282 279 272 266 260 255 250 245 241 238 239 236 238 238 242
293 293 288 284 281 278 275 271 259 248 235 224 244 277 265 271 265 249 264 269 270 288 291 288 279 273 268 262 257 251 247 244 243 242 242 244 246 247
291 288 281 279 277 272 266 255 243 229 225 224 234 250 245 258 270 270 266 287 290 276 281 286 284 279 271 264 260 257 253 250 247 245 245 246 248 250
290 281 276 275 273 263 249 237 224 226 243 248 256 250 256 257 269 272 282 277 282 294 284 280 284 289 280 267 259 258 256 255 253 251 249 251 253 254
284 274 268 270 261 247 236 228 227 238 244 251 255 250 252 253 261 267 274 286 284 279 278 275 280 298 277 269 260 254 254 257 256 255 253 253 256 260
275 263 262 261 250 239 233 231 238 237 244 253 253 250 250 259 260 270 273 276 280 281 281 285 290 290 275 268 264 253 247 249 255 258 258 259 262 264
271 260 258 255 245 237 236 236 238 245 255 256 255 257 259 263 265 267 271 276 284 294 296 294 290 284 272 262 258 253 253 255 256 258 261 262 263 265
269 263 257 249 239 234 237 238 241 248 253 256 258 261 264 266 267 269 265 282 293 296 299 298 293 281 274 265 261 260 261 262 261 262 261 263 266 266
270 260 257 251 234 234 240 240 245 250 252 254 259 262 265 266 266 263 269 284 288 292 292 290 289 284 277 272 267 268 268 268 270 270 270 268 268 271
277 263 258 253 232 231 239 247 248 249 253 257 260 263 265 266 266 264 273 281 283 290 294 289 287 284 279 274 271 270 272 274 273 273 273 272 270 270
274 264 260 246 234 236 239 241 249 251 256 257 260 263 268 269 267 266 277 284 282 287 286 285 284 282 284 282 278 274 271 274 275 276 276 275 272 266
268 266 254 259 249 244 243 248 252 250 255 264 264 266 266 264 267 274 275 280 280 282 283 284 283 286 285 283 281 277 278 277 276 276 275 275 271 268
259 260 257 250 252 256 260 260 261 260 263 264 265 268 270 269 268 269 273 276 279 282 282 281 282 282 283 283 282 282 279 277 277 277 276 274 272 272
258 254 254 254 256 258 257 257 257 259 262 261 263 265 268 270 270 272 273 276 281 284 282 278 278 280 282 283 284 282 279 275 273 274 276 275 275 277